GW6815 Weather Reports


Display with metric or nautical units.
time (UTC)temp
F
wind
direction
speed
MPH
gust
MPH
rain 1hr
in
rain 24hr
in
rain mn
in
humidity
%
barometer
mb
20260509080109 71 222 6.0 10.0 0.00 0.00 0.00 86 1006.1
20260509075606 71 187 3.0 6.0 0.00 0.00 0.00 86 1006.3
20260509075104 71 199 1.0 2.0 0.00 0.00 0.00 86 1006.8
20260509074601 71 244 1.0 1.0 0.00 0.00 0.00 86 1007.0
20260509074057 71 294 2.0 3.0 0.00 0.00 0.00 87 1007.2
20260509073554 70 192 2.0 3.0 0.00 0.00 0.00 87 1007.2
20260509073050 70 205 1.0 1.0 0.00 0.00 0.00 87 1007.4
20260509072547 70 213 1.0 2.0 0.00 0.00 0.00 87 1007.8
20260509072044 70 186 1.0 2.0 0.00 0.00 0.00 87 1007.9
20260509071540 70 244 1.0 1.0 0.00 0.00 0.00 87 1008.1
20260509071038 70 166 2.0 3.0 0.00 0.00 0.00 86 1008.2
20260509070535 70 178 2.0 3.0 0.00 0.00 0.00 86 1008.2
20260509070031 70 281 0.0 1.0 0.00 0.00 0.00 86 1008.3
20260509065526 70 225 1.0 1.0 0.00 0.00 0.00 86 1008.5
20260509065023 70 258 0.0 1.0 0.00 0.00 0.00 86 1008.5
20260509064521 70 305 0.0 0.0 0.00 0.00 0.00 86 1008.4
20260509064019 70 249 0.0 0.0 0.00 0.00 0.00 86 1008.6
20260509063514 70 9 0.0 0.0 0.00 0.00 0.00 86 1008.7
20260509063011 70 306 1.0 2.0 0.00 0.00 0.00 86 1008.7
20260509062509 70 317 0.0 0.0 0.00 0.00 0.00 85 1008.6
20260509062006 70 270 1.0 2.0 0.00 0.00 0.00 85 1008.3
20260509061503 70 246 0.0 1.0 0.00 0.00 0.00 85 1008.0
20260509061001 70 256 0.0 1.0 0.00 0.00 0.00 84 1008.4
20260509060458 70 264 0.0 1.0 0.00 0.00 0.00 84 1008.3
20260509055953 71 285 0.0 0.0 0.00 0.00 0.00 84 1008.0
20260509055448 71 265 0.0 0.0 0.00 0.00 0.00 83 1008.4
20260509054945 71 240 1.0 1.0 0.00 0.00 0.00 83 1008.0
20260509054442 71 260 0.0 1.0 0.00 0.00 0.00 82 1008.2
20260509053940 71 225 1.0 1.0 0.00 0.00 0.00 82 1008.2
20260509053438 71 254 0.0 0.0 0.00 0.00 0.00 82 1008.6
20260509052935 71 272 0.0 0.0 0.00 0.00 0.00 81 1008.8
20260509052432 72 266 0.0 0.0 0.00 0.00 0.00 81 1009.2
20260509051930 72 349 0.0 0.0 0.00 0.00 0.00 80 1009.0
20260509051428 72 312 0.0 0.0 0.00 0.00 0.00 79 1009.1
20260509050924 72 333 0.0 0.0 0.00 0.00 0.00 78 1009.3
20260509050421 73 330 0.0 0.0 0.00 0.00 0.00 78 1009.6
20260509045918 73 307 0.0 0.0 0.00 0.26 0.26 79 1009.8
20260509045415 72 337 0.0 0.0 0.00 0.26 0.26 79 1010.2
20260509044912 72 357 0.0 1.0 0.00 0.26 0.26 80 1009.9
20260509044410 72 304 0.0 0.0 0.00 0.26 0.26 78 1009.1
20260509043906 73 296 0.0 0.0 0.00 0.26 0.26 78 1008.9
20260509043402 73 319 0.0 0.0 0.00 0.26 0.26 77 1008.5
20260509042858 73 250 1.0 1.0 0.00 0.26 0.26 77 1008.2
20260509042355 73 242 1.0 2.0 0.00 0.26 0.26 77 1008.2
20260509041851 73 215 4.0 6.0 0.00 0.26 0.26 76 1008.0
20260509041348 73 210 0.0 0.0 0.00 0.26 0.26 76 1008.0
20260509040847 73 247 0.0 0.0 0.00 0.26 0.26 76 1008.3
20260509040344 73 221 0.0 0.0 0.00 0.26 0.26 76 1008.5
20260509035841 73 243 0.0 0.0 0.00 0.26 0.26 76 1008.5
20260509035338 73 261 0.0 0.0 0.00 0.26 0.26 75 1008.3
20260509034834 73 239 1.0 1.0 0.00 0.26 0.26 75 1008.0
20260509034332 73 253 1.0 1.0 0.00 0.26 0.26 75 1007.8
20260509033828 73 223 3.0 3.0 0.00 0.26 0.26 75 1007.8
20260509033326 74 212 2.0 2.0 0.00 0.26 0.26 74 1007.6
20260509032822 74 185 6.0 7.0 0.00 0.26 0.26 74 1007.7
20260509032320 74 214 1.0 1.0 0.00 0.26 0.26 73 1008.6
20260509031818 74 276 0.0 0.0 0.00 0.26 0.26 74 1008.9
20260509031315 74 320 0.0 0.0 0.00 0.26 0.26 74 1008.9
20260509030812 74 338 0.0 0.0 0.00 0.26 0.26 74 1008.9
20260509030310 74 303 0.0 0.0 0.00 0.26 0.26 74 1008.9
20260509025806 74 315 0.0 0.0 0.00 0.26 0.26 74 1008.7
20260509025306 73 272 0.0 0.0 0.00 0.26 0.26 74 1008.5
20260509024758 73 291 0.0 0.0 0.00 0.26 0.26 74 1008.3
20260509024254 73 230 0.0 0.0 0.00 0.26 0.26 74 1008.2
20260509023751 73 268 0.0 0.0 0.00 0.26 0.26 74 1008.0
20260509023248 73 269 0.0 0.0 0.00 0.26 0.26 74 1008.1
20260509022744 73 275 0.0 0.0 0.00 0.26 0.26 73 1007.9
20260509022242 73 260 1.0 1.0 0.00 0.26 0.26 73 1007.4
20260509021739 73 252 0.0 0.0 0.00 0.26 0.26 73 1007.3
20260509021236 74 204 2.0 2.0 0.00 0.26 0.26 73 1007.0
20260509020734 74 190 2.0 3.0 0.00 0.26 0.26 72 1006.8
20260509020231 74 279 0.0 0.0 0.00 0.26 0.26 72 1006.9
20260509015729 74 213 0.0 0.0 0.00 0.26 0.26 71 1007.1
20260509015227 74 250 0.0 0.0 0.00 0.26 0.26 71 1007.0
20260509014723 74 228 1.0 1.0 0.00 0.26 0.26 71 1007.0
20260509014220 74 266 0.0 0.0 0.00 0.26 0.26 71 1006.8
20260509013717 75 215 2.0 2.0 0.00 0.26 0.26 70 1006.7
20260509013213 75 214 1.0 1.0 0.00 0.26 0.26 70 1006.7
20260509012709 75 236 1.0 1.0 0.00 0.26 0.26 69 1006.9
20260509012206 75 176 1.0 3.0 0.00 0.26 0.26 68 1006.8
20260509011704 75 185 2.0 2.0 0.00 0.26 0.26 67 1006.9
20260509011201 76 274 0.0 0.0 0.00 0.26 0.26 67 1006.9
20260509010659 76 255 1.0 2.0 0.00 0.26 0.26 67 1006.9
20260509010155 76 200 2.0 2.0 0.00 0.26 0.26 67 1006.8
20260509005653 76 198 1.0 2.0 0.00 0.26 0.26 66 1006.8
20260509005149 76 230 1.0 2.0 0.00 0.26 0.26 66 1006.8
20260509004644 77 232 0.0 1.0 0.00 0.26 0.26 66 1006.7
20260509004142 77 207 2.0 2.0 0.00 0.26 0.26 65 1006.6
20260509003640 77 178 2.0 2.0 0.00 0.26 0.26 65 1006.4
20260509003137 77 190 2.0 2.0 0.00 0.26 0.26 64 1006.4
20260509002635 77 219 3.0 3.0 0.00 0.26 0.26 63 1006.4
20260509002132 77 159 0.0 1.0 0.00 0.26 0.26 63 1006.4
20260509001630 77 182 0.0 0.0 0.00 0.26 0.26 63 1006.3
20260509001125 78 186 3.0 4.0 0.00 0.26 0.26 61 1006.4
20260509000624 78 257 2.0 2.0 0.00 0.26 0.26 62 1006.2
20260509000120 78 232 2.0 2.0 0.00 0.26 0.26 61 1006.4
20260508235617 78 201 1.0 2.0 0.00 0.26 0.26 62 1006.4
20260508235113 78 239 4.0 6.0 0.00 0.26 0.26 61 1006.5
20260508234611 79 196 6.0 8.0 0.00 0.26 0.26 60 1006.6
20260508234107 80 146 2.0 3.0 0.00 0.26 0.26 58 1006.5
20260508233607 81 254 1.0 2.0 0.00 0.26 0.26 58 1006.9
20260508233104 82 245 0.0 0.0 0.00 0.26 0.26 56 1006.6
20260508232601 82 13 2.0 2.0 0.00 0.26 0.26 56 1006.7
20260508232057 82 224 1.0 1.0 0.00 0.26 0.26 56 1006.7
20260508231555 83 173 3.0 4.0 0.00 0.26 0.26 54 1006.6
20260508231052 85 215 5.0 7.0 0.00 0.26 0.26 51 1006.8
20260508230548 84 177 2.0 3.0 0.00 0.26 0.26 51 1006.7
20260508230045 84 160 4.0 6.0 0.00 0.26 0.26 52 1006.6
20260508225543 85 180 4.0 6.0 0.00 0.26 0.26 51 1006.8
20260508225039 86 246 2.0 2.0 0.00 0.26 0.26 49 1006.6
20260508224537 85 283 1.0 2.0 0.00 0.26 0.26 50 1006.7
20260508224034 85 250 2.0 2.0 0.00 0.26 0.26 50 1006.6
20260508223532 85 256 2.0 4.0 0.00 0.26 0.26 51 1006.8
20260508223029 86 322 0.0 1.0 0.00 0.26 0.26 51 1007.0
20260508222527 85 270 1.0 1.0 0.00 0.26 0.26 51 1007.0
20260508222023 86 194 2.0 2.0 0.00 0.26 0.26 50 1006.9
20260508221519 84 190 1.0 1.0 0.00 0.26 0.26 52 1006.8
20260508221015 83 214 1.0 2.0 0.00 0.26 0.26 53 1006.9
20260508220512 85 229 5.0 6.0 0.00 0.26 0.26 51 1006.9
20260508220008 86 208 3.0 4.0 0.00 0.26 0.26 49 1006.7
20260508215505 86 291 1.0 1.0 0.00 0.26 0.26 50 1006.8
20260508215002 87 216 3.0 3.0 0.00 0.26 0.26 48 1006.7
20260508214500 86 161 5.0 6.0 0.00 0.26 0.26 47 1006.8
20260508213955 85 209 2.0 2.0 0.00 0.26 0.26 49 1007.0
20260508213453 84 199 2.0 3.0 0.00 0.26 0.26 50 1007.1
20260508212948 84 326 2.0 2.0 0.00 0.26 0.26 52 1006.8
20260508212445 86 191 2.0 2.0 0.00 0.26 0.26 49 1006.9
20260508211941 85 201 2.0 2.0 0.00 0.26 0.26 49 1007.0
20260508211437 84 245 2.0 3.0 0.00 0.26 0.26 50 1006.9
20260508210934 84 200 3.0 3.0 0.00 0.26 0.26 50 1006.9
20260508210431 83 191 2.0 3.0 0.00 0.26 0.26 51 1007.2
20260508205927 84 159 4.0 4.0 0.00 0.26 0.26 50 1007.5
20260508205425 82 292 2.0 3.0 0.00 0.26 0.26 53 1007.5
20260508204920 80 228 3.0 4.0 0.00 0.26 0.26 55 1007.8
20260508204418 79 192 3.0 7.0 0.00 0.26 0.26 58 1008.0
20260508203913 79 129 5.0 6.0 0.00 0.26 0.26 57 1008.3
20260508203410 80 201 1.0 2.0 0.00 0.26 0.26 56 1008.4
20260508202906 81 263 3.0 6.0 0.00 0.26 0.26 56 1008.7
20260508202403 81 294 4.0 7.0 0.00 0.26 0.26 55 1008.7
20260508201900 81 312 1.0 2.0 0.00 0.26 0.26 55 1008.5
20260508201357 82 240 2.0 3.0 0.00 0.26 0.26 54 1008.6
20260508200853 82 249 2.0 4.0 0.00 0.26 0.26 52 1008.8
20260508200350 82 308 1.0 1.0 0.00 0.26 0.26 54 1008.6
20260508195846 82 170 2.0 3.0 0.00 0.26 0.26 54 1008.6
20260508195343 82 191 2.0 3.0 0.00 0.26 0.26 54 1008.8
20260508194839 82 169 1.0 2.0 0.00 0.26 0.26 53 1008.9
20260508194336 83 80 2.0 2.0 0.00 0.26 0.26 50 1008.8
20260508193833 84 225 1.0 2.0 0.00 0.26 0.26 48 1008.9
20260508193330 85 158 1.0 2.0 0.00 0.26 0.26 47 1008.9
20260508192827 84 273 1.0 1.0 0.00 0.26 0.26 49 1008.8
20260508192323 84 316 2.0 3.0 0.00 0.26 0.26 48 1009.0
20260508191821 85 108 1.0 2.0 0.00 0.26 0.26 48 1008.9
20260508191318 86 161 2.0 2.0 0.00 0.26 0.26 47 1009.0
20260508190815 85 306 1.0 1.0 0.00 0.26 0.26 49 1008.9
20260508190311 84 106 4.0 6.0 0.00 0.26 0.26 48 1009.0
20260508185807 84 267 1.0 2.0 0.00 0.26 0.26 48 1009.2
20260508185306 83 161 2.0 4.0 0.00 0.26 0.26 49 1009.4
20260508184802 84 312 1.0 1.0 0.00 0.26 0.26 47 1009.1
20260508184259 83 293 2.0 2.0 0.00 0.26 0.26 50 1009.1
20260508183756 83 298 2.0 3.0 0.00 0.26 0.26 48 1009.3
20260508183252 83 266 2.0 3.0 0.00 0.26 0.26 49 1009.3
20260508182749 83 230 1.0 2.0 0.00 0.26 0.26 48 1009.7
20260508182245 83 172 3.0 4.0 0.00 0.26 0.26 48 1009.6
20260508181741 84 154 1.0 2.0 0.00 0.26 0.26 47 1009.9
20260508181238 82 285 2.0 3.0 0.00 0.26 0.26 49 1010.1
20260508180734 82 303 0.0 0.0 0.00 0.26 0.26 51 1010.2
20260508180232 82 233 1.0 1.0 0.00 0.26 0.26 49 1010.3
20260508175728 82 267 0.0 1.0 0.00 0.26 0.26 50 1010.2
20260508175225 82 182 1.0 1.0 0.00 0.26 0.26 49 1010.5
20260508174723 81 189 1.0 2.0 0.00 0.26 0.26 51 1010.3
20260508174220 80 262 1.0 2.0 0.00 0.26 0.26 52 1010.5
20260508173716 80 286 2.0 3.0 0.00 0.26 0.26 51 1010.6
20260508173212 80 232 2.0 2.0 0.00 0.26 0.26 51 1010.4
20260508172709 80 310 0.0 1.0 0.00 0.26 0.26 51 1010.7
20260508172206 79 190 2.0 3.0 0.00 0.26 0.26 52 1010.7
20260508171703 78 262 2.0 2.0 0.00 0.26 0.26 54 1010.8
20260508171159 78 234 1.0 1.0 0.00 0.26 0.26 54 1010.9
20260508170656 77 200 4.0 4.0 0.00 0.26 0.26 52 1011.0
20260508170154 76 8 3.0 4.0 0.00 0.26 0.26 54 1011.1
20260508165651 76 98 4.0 6.0 0.00 0.26 0.26 54 1011.3
20260508165148 77 199 2.0 4.0 0.00 0.26 0.26 54 1011.7
20260508164644 76 301 0.0 1.0 0.00 0.26 0.26 57 1011.6
20260508164141 75 52 1.0 2.0 0.00 0.26 0.26 60 1011.8
20260508163639 74 259 1.0 1.0 0.00 0.26 0.26 59 1011.6
20260508163136 74 196 3.0 6.0 0.00 0.26 0.26 59 1011.8
20260508162631 73 224 0.0 1.0 0.00 0.26 0.26 62 1011.8
20260508162129 72 206 1.0 2.0 0.00 0.26 0.26 62 1012.1
20260508161625 72 159 3.0 3.0 0.00 0.26 0.26 62 1012.1
20260508161123 71 163 4.0 6.0 0.00 0.26 0.26 63 1012.3
20260508160622 72 213 1.0 2.0 0.00 0.26 0.26 64 1012.3
20260508160119 72 240 2.0 2.0 0.00 0.26 0.26 63 1012.3
20260508155615 71 316 1.0 1.0 0.00 0.26 0.26 65 1012.3
20260508155112 70 188 1.0 1.0 0.00 0.26 0.26 67 1012.2
20260508154609 70 216 2.0 3.0 0.00 0.26 0.26 65 1012.4
20260508154106 70 182 2.0 2.0 0.00 0.26 0.26 67 1012.5
20260508153603 69 277 0.0 0.0 0.00 0.26 0.26 69 1012.3
20260508153059 69 228 1.0 1.0 0.00 0.26 0.26 68 1012.5
20260508152557 69 226 1.0 1.0 0.00 0.26 0.26 69 1012.6
20260508152051 69 242 2.0 2.0 0.00 0.26 0.26 68 1012.4
20260508151549 69 226 1.0 1.0 0.00 0.26 0.26 69 1012.9
20260508151046 69 286 0.0 1.0 0.00 0.26 0.26 71 1012.8
20260508150543 69 226 2.0 2.0 0.00 0.26 0.26 70 1012.7
20260508150038 70 199 1.0 2.0 0.00 0.26 0.26 70 1012.7
20260508145536 69 188 2.0 3.0 0.00 0.26 0.26 72 1012.6
20260508145032 69 185 2.0 2.0 0.00 0.26 0.26 73 1012.8
20260508144530 68 276 1.0 1.0 0.00 0.26 0.26 77 1012.7
20260508144027 67 217 2.0 3.0 0.00 0.26 0.26 78 1012.6
20260508143525 66 200 1.0 1.0 0.00 0.26 0.26 79 1012.9
20260508143020 66 178 1.0 1.0 0.00 0.26 0.26 78 1013.0
20260508142518 66 303 0.0 1.0 0.00 0.26 0.26 76 1013.0
20260508142014 67 207 1.0 1.0 0.00 0.26 0.26 76 1013.3
20260508141510 67 256 1.0 1.0 0.00 0.26 0.26 77 1013.0
20260508141008 67 314 1.0 1.0 0.00 0.26 0.26 79 1012.8
20260508140506 66 263 1.0 1.0 0.00 0.26 0.26 84 1013.0
20260508140001 65 263 0.0 1.0 0.00 0.26 0.26 84 1013.0
20260508135457 65 241 1.0 1.0 0.00 0.26 0.26 85 1013.0
20260508134954 64 279 0.0 0.0 0.00 0.26 0.26 86 1013.0
20260508134450 64 265 0.0 0.0 0.00 0.26 0.26 87 1013.1
20260508133947 64 293 0.0 0.0 0.00 0.26 0.26 88 1013.0
20260508133445 64 223 1.0 1.0 0.00 0.26 0.26 88 1012.9
20260508132941 63 259 1.0 2.0 0.00 0.26 0.26 90 1012.9
20260508132440 62 185 0.0 1.0 0.00 0.26 0.26 91 1013.0
20260508131936 62 231 2.0 2.0 0.00 0.26 0.26 91 1013.1
20260508131431 62 241 1.0 1.0 0.00 0.26 0.26 91 1012.9
20260508130928 62 224 1.0 1.0 0.00 0.26 0.26 91 1013.0
20260508130425 61 225 2.0 3.0 0.00 0.26 0.26 92 1013.0
20260508125921 61 252 1.0 1.0 0.00 0.26 0.26 94 1012.8
20260508125417 61 231 1.0 1.0 0.00 0.26 0.26 95 1012.8
20260508124915 61 231 1.0 1.0 0.00 0.26 0.26 95 1012.7
20260508124413 61 213 2.0 2.0 0.00 0.26 0.26 96 1012.8
20260508123910 61 254 0.0 1.0 0.00 0.26 0.26 96 1013.1
20260508123409 61 237 0.0 1.0 0.00 0.26 0.26 96 1012.7
20260508122904 60 321 0.0 0.0 0.00 0.26 0.26 96 1013.2
20260508122402 60 320 0.0 0.0 0.00 0.26 0.26 96 1013.9
20260508121859 60 299 0.0 0.0 0.00 0.26 0.26 96 1013.6
20260508121357 60 275 0.0 0.0 0.00 0.26 0.26 96 1013.2
20260508120855 60 231 0.0 1.0 0.00 0.26 0.26 96 1012.9
20260508120352 60 208 1.0 2.0 0.00 0.26 0.26 96 1013.2
20260508115849 60 266 0.0 0.0 0.00 0.26 0.26 96 1013.3
20260508115347 60 299 0.0 0.0 0.00 0.26 0.26 96 1013.4
20260508114843 60 297 0.0 0.0 0.00 0.26 0.26 95 1013.2
20260508114340 60 278 0.0 0.0 0.00 0.26 0.26 95 1013.1
20260508113837 60 274 0.0 0.0 0.00 0.26 0.26 95 1012.9
20260508113335 60 263 0.0 1.0 0.00 0.26 0.26 95 1013.1
20260508112831 60 309 0.0 0.0 0.05 0.26 0.26 95 1012.9
20260508112329 60 276 0.0 0.0 0.19 0.26 0.26 95 1012.9
20260508111825 60 262 0.0 0.0 0.19 0.25 0.25 95 1012.5
20260508111322 60 301 0.0 0.0 0.17 0.23 0.23 95 1012.9
20260508110819 60 214 0.0 0.0 0.17 0.23 0.23 95 1012.6
20260508110317 60 299 0.0 1.0 0.00 0.20 0.20 94 1012.3
20260508105816 60 208 1.0 2.0 0.07 0.20 0.20 94 1012.7
20260508105313 60 208 2.0 3.0 0.07 0.20 0.20 94 1012.4
20260508104810 60 178 2.0 3.0 0.00 0.19 0.19 94 1012.9
20260508104307 60 221 0.0 1.0 0.00 0.19 0.19 94 1013.3
20260508103805 60 252 0.0 1.0 0.05 0.19 0.19 94 1013.5
20260508103301 61 314 0.0 0.0 0.28 0.19 0.19 93 1013.3
20260508102759 61 318 0.0 1.0 0.97 0.18 0.18 92 1013.2
20260508102257 62 247 1.0 1.0 0.78 0.15 0.15 91 1012.6
20260508101754 62 175 2.0 2.0 0.19 0.03 0.03 87 1012.6
20260508101251 62 267 0.0 0.0 0.12 0.02 0.02 86 1012.8
20260508100749 62 320 0.0 0.0 0.00 0.00 0.00 84 1013.0
20260508100247 62 307 0.0 0.0 0.00 0.00 0.00 84 1012.6
20260508095742 62 297 0.0 0.0 0.00 0.00 0.00 84 1012.2
20260508095240 62 238 0.0 1.0 0.00 0.00 0.00 85 1012.2
20260508094737 62 232 1.0 1.0 0.00 0.00 0.00 85 1012.1
20260508094234 62 216 1.0 1.0 0.00 0.00 0.00 85 1012.0
20260508093731 62 229 0.0 0.0 0.00 0.00 0.00 85 1012.2
20260508093229 62 282 0.0 0.0 0.00 0.00 0.00 85 1012.1
20260508092725 62 276 0.0 0.0 0.00 0.00 0.00 85 1012.1
20260508092224 62 269 0.0 0.0 0.00 0.00 0.00 85 1012.2
20260508091721 62 271 0.0 0.0 0.00 0.00 0.00 85 1012.2
20260508091218 62 313 0.0 0.0 0.00 0.00 0.00 84 1012.1
20260508090716 62 299 0.0 0.0 0.00 0.00 0.00 83 1012.4
20260508090213 62 233 0.0 0.0 0.00 0.00 0.00 83 1012.2
20260508085709 62 251 0.0 0.0 0.00 0.00 0.00 82 1012.1
20260508085207 62 246 0.0 1.0 0.00 0.00 0.00 82 1012.7
20260508084702 62 293 0.0 0.0 0.00 0.00 0.00 81 1012.9
20260508084200 62 256 0.0 0.0 0.00 0.00 0.00 80 1012.3
20260508083657 63 247 1.0 2.0 0.00 0.00 0.00 80 1011.9
20260508083155 63 209 1.0 1.0 0.00 0.00 0.00 79 1012.9
20260508082650 63 348 0.0 0.0 0.00 0.00 0.00 78 1013.5
20260508082147 63 277 0.0 0.0 0.00 0.00 0.00 77 1013.9
20260508081645 63 259 0.0 1.0 0.00 0.00 0.00 77 1012.7
20260508081141 63 225 1.0 1.0 0.00 0.00 0.00 77 1012.7
20260508080638 63 209 3.0 3.0 0.00 0.00 0.00 79 1012.5